Hourly Weather Chamonix

Today, 12 June, Saturday

Time Temperature Precipitation Wind Pressure Humidity
00:00 +12°C° 0 mm 2 mps 656 mmHg 89%
01:00 +11°C° 0 mm 1 mps 656 mmHg 88%
02:00 +11°C° 0 mm 1 mps 656 mmHg 88%
03:00 +11°C° 0 mm 1 mps 656 mmHg 87%
04:00 +13°C° 0 mm 1 mps 656 mmHg 84%
05:00 +13°C° 0 mm 0 mps 657 mmHg 81%
06:00 +14°C° 0 mm 0 mps 657 mmHg 78%
07:00 +18°C° 0 mm 1 mps 658 mmHg 72%
08:00 +19°C° 0 mm 1 mps 658 mmHg 66%
09:00 +21°C° 0 mm 1 mps 659 mmHg 60%
10:00 +21°C° 0 mm 2 mps 659 mmHg 55%
11:00 +23°C° 0 mm 2 mps 659 mmHg 51%
12:00 +23°C° 0 mm 2 mps 659 mmHg 47%
13:00 +23°C° 0 mm 2 mps 659 mmHg 47%
14:00 +23°C° 0 mm 2 mps 659 mmHg 48%
15:00 +23°C° 0 mm 2 mps 659 mmHg 49%
16:00 +21°C° 0 mm 2 mps 659 mmHg 57%
17:00 +20°C° 0 mm 2 mps 659 mmHg 66%
18:00 +20°C° 0 mm 1 mps 659 mmHg 75%
19:00 +18°C° 0 mm 1 mps 659 mmHg 79%
20:00 +16°C° 0 mm 1 mps 659 mmHg 84%
21:00 +14°C° 0 mm 1 mps 659 mmHg 89%
22:00 +14°C° 0 mm 1 mps 658 mmHg 89%
23:00 +13°C° 0 mm 1 mps 658 mmHg 90%

Tomorrow, 13 June, Sunday

Time Temperature Precipitation Wind Pressure Humidity
00:00 +13°C° 0 mm 1 mps 658 mmHg 91%
01:00 +13°C° 0 mm 1 mps 657 mmHg 90%
02:00 +12°C° 0 mm 1 mps 657 mmHg 90%
03:00 +12°C° 0 mm 1 mps 657 mmHg 90%
04:00 +13°C° 0 mm 1 mps 657 mmHg 85%
05:00 +15°C° 0 mm 1 mps 658 mmHg 80%
06:00 +15°C° 0 mm 0 mps 658 mmHg 75%
07:00 +19°C° 0 mm 1 mps 658 mmHg 69%
08:00 +20°C° 0 mm 1 mps 659 mmHg 63%
09:00 +21°C° 0 mm 2 mps 659 mmHg 57%
10:00 +23°C° 0 mm 2 mps 659 mmHg 54%
11:00 +23°C° 0 mm 2 mps 659 mmHg 52%
12:00 +24°C° 0 mm 2 mps 659 mmHg 49%
13:00 +25°C° 0 mm 2 mps 659 mmHg 50%
14:00 +25°C° 0 mm 2 mps 659 mmHg 51%
15:00 +25°C° 0 mm 2 mps 659 mmHg 51%
16:00 +24°C° 0 mm 2 mps 659 mmHg 59%
17:00 +23°C° 0 mm 2 mps 658 mmHg 67%
18:00 +21°C° 0 mm 1 mps 658 mmHg 75%
19:00 +20°C° 0 mm 1 mps 658 mmHg 80%
20:00 +18°C° 0 mm 1 mps 658 mmHg 86%
21:00 +15°C° 0 mm 1 mps 658 mmHg 92%
22:00 +15°C° 0 mm 1 mps 657 mmHg 91%
23:00 +15°C° 0 mm 1 mps 657 mmHg 91%

Day after tomorrow, 14 June, Monday

Time Temperature Precipitation Wind Pressure Humidity
00:00 +15°C° 0 mm 1 mps 657 mmHg 91%
01:00 +14°C° 0 mm 1 mps 657 mmHg 90%
02:00 +14°C° 0 mm 1 mps 657 mmHg 90%
03:00 +14°C° 0 mm 1 mps 657 mmHg 89%
04:00 +15°C° 0 mm 1 mps 657 mmHg 84%
05:00 +16°C° 0 mm 0 mps 657 mmHg 80%
06:00 +17°C° 0 mm 0 mps 658 mmHg 75%
07:00 +21°C° 0 mm 1 mps 658 mmHg 70%
08:00 +22°C° 0 mm 1 mps 658 mmHg 65%
09:00 +24°C° 0 mm 2 mps 658 mmHg 60%
10:00 +25°C° 0 mm 2 mps 658 mmHg 57%
11:00 +25°C° 0 mm 2 mps 658 mmHg 54%
12:00 +26°C° 0 mm 2 mps 658 mmHg 51%
13:00 +26°C° 0 mm 2 mps 658 mmHg 51%
14:00 +26°C° 0 mm 2 mps 658 mmHg 51%
15:00 +26°C° 0 mm 2 mps 658 mmHg 51%
16:00 +24°C° 0 mm 2 mps 658 mmHg 58%
17:00 +23°C° 0 mm 2 mps 657 mmHg 65%
18:00 +21°C° 0 mm 2 mps 657 mmHg 72%
19:00 +20°C° 0 mm 1 mps 657 mmHg 78%
20:00 +18°C° 0 mm 1 mps 657 mmHg 83%
21:00 +16°C° 0 mm 1 mps 657 mmHg 89%
22:00 +15°C° 0 mm 1 mps 657 mmHg 89%
23:00 +15°C° 0 mm 1 mps 656 mmHg 89%

15 June, Tuesday

Time Temperature Precipitation Wind Pressure Humidity
00:00 +14°C° 0 mm 1 mps 656 mmHg 90%
01:00 +14°C° 0 mm 1 mps 656 mmHg 89%
02:00 +13°C° 0 mm 1 mps 656 mmHg 89%
03:00 +13°C° 0 mm 1 mps 655 mmHg 89%
04:00 +15°C° 0 mm 1 mps 656 mmHg 82%
05:00 +15°C° 0 mm 0 mps 656 mmHg 75%
06:00 +17°C° 0 mm 0 mps 657 mmHg 68%
07:00 +18°C° 0 mm 0 mps 657 mmHg 61%
08:00 +22°C° 0 mm 1 mps 657 mmHg 54%
09:00 +23°C° 0 mm 1 mps 658 mmHg 47%
10:00 +24°C° 0 mm 1 mps 658 mmHg 44%
11:00 +25°C° 0 mm 2 mps 658 mmHg 41%
12:00 +26°C° 0 mm 2 mps 658 mmHg 38%
13:00 +26°C° 0 mm 2 mps 658 mmHg 39%
14:00 +26°C° 0 mm 2 mps 658 mmHg 41%
15:00 +26°C° 0 mm 2 mps 658 mmHg 42%
16:00 +25°C° 0 mm 2 mps 657 mmHg 51%
17:00 +23°C° 0 mm 1 mps 657 mmHg 60%
18:00 +22°C° 0 mm 1 mps 657 mmHg 70%
19:00 +20°C° 0 mm 1 mps 657 mmHg 75%
20:00 +19°C° 0 mm 1 mps 656 mmHg 80%
21:00 +16°C° 0 mm 1 mps 656 mmHg 85%
22:00 +16°C° 0 mm 1 mps 656 mmHg 85%
23:00 +15°C° 0 mm 1 mps 656 mmHg 85%

16 June, Wednesday

Time Temperature Precipitation Wind Pressure Humidity
00:00 +15°C° 0 mm 1 mps 656 mmHg 85%
01:00 +15°C° 0 mm 1 mps 656 mmHg 85%
02:00 +14°C° 0 mm 1 mps 656 mmHg 85%
03:00 +14°C° 0 mm 1 mps 656 mmHg 84%
04:00 +16°C° 0 mm 1 mps 656 mmHg 79%
05:00 +18°C° 0 mm 1 mps 656 mmHg 74%
06:00 +19°C° 0 mm 1 mps 656 mmHg 70%
07:00 +21°C° 0 mm 1 mps 657 mmHg 61%
08:00 +23°C° 0 mm 1 mps 657 mmHg 52%
09:00 +25°C° 0 mm 1 mps 657 mmHg 43%
10:00 +26°C° 0 mm 1 mps 657 mmHg 41%
11:00 +26°C° 0 mm 2 mps 657 mmHg 39%
12:00 +27°C° 0 mm 2 mps 657 mmHg 37%
13:00 +27°C° 0 mm 2 mps 657 mmHg 38%
14:00 +27°C° 0 mm 2 mps 657 mmHg 38%
15:00 +27°C° 0 mm 2 mps 657 mmHg 39%
16:00 +26°C° 0.1 mm 1 mps 656 mmHg 49%
17:00 +25°C° 0.1 mm 1 mps 656 mmHg 59%
18:00 +23°C° 0.1 mm 1 mps 656 mmHg 68%
19:00 +22°C° 0.2 mm 1 mps 655 mmHg 73%
20:00 +20°C° 0.2 mm 1 mps 655 mmHg 78%
21:00 +17°C° 0.2 mm 2 mps 655 mmHg 82%
22:00 +17°C° 0.3 mm 2 mps 655 mmHg 85%
23:00 +16°C° 0.3 mm 2 mps 655 mmHg 88%

17 June, Thursday

Time Temperature Precipitation Wind Pressure Humidity
00:00 +15°C° 0.3 mm 2 mps 656 mmHg 91%
01:00 +15°C° 0.2 mm 2 mps 655 mmHg 91%
02:00 +15°C° 0.2 mm 2 mps 655 mmHg 91%
03:00 +15°C° 0.2 mm 2 mps 655 mmHg 91%
04:00 +16°C° 0 mm 2 mps 655 mmHg 89%
05:00 +17°C° 0 mm 2 mps 655 mmHg 87%
06:00 +19°C° 0 mm 1 mps 656 mmHg 84%
07:00 +21°C° 0 mm 1 mps 656 mmHg 74%
08:00 +23°C° 0 mm 1 mps 656 mmHg 65%
09:00 +25°C° 0 mm 1 mps 657 mmHg 55%
10:00 +26°C° 0.2 mm 1 mps 657 mmHg 52%
11:00 +27°C° 0.2 mm 1 mps 657 mmHg 49%
12:00 +28°C° 0.2 mm 1 mps 656 mmHg 46%
13:00 +27°C° 0.2 mm 2 mps 656 mmHg 48%
14:00 +27°C° 0.2 mm 2 mps 656 mmHg 51%
15:00 +27°C° 0.2 mm 2 mps 656 mmHg 54%
16:00 +24°C° 2 mm 2 mps 655 mmHg 65%
17:00 +21°C° 2 mm 2 mps 655 mmHg 77%
18:00 +19°C° 2 mm 2 mps 655 mmHg 88%
19:00 +18°C° 0.1 mm 2 mps 655 mmHg 89%
20:00 +17°C° 0.1 mm 2 mps 655 mmHg 90%
21:00 +17°C° 0.1 mm 3 mps 655 mmHg 92%
22:00 +17°C° 0.3 mm 2 mps 655 mmHg 92%
23:00 +17°C° 0.3 mm 2 mps 655 mmHg 91%
Show more

We Need Your Consent

Meteoprog and our Service Providers may store and access personal data such as cookies, device identifiers or other similar technologies on your device and process such data to personalise content and ads, as well as provide social media features and to analyse the traffic.

  • Store and/or access information on your device

    Cookies, device identifiers or other information can be stored or accessed on your device for the purposes indicated above.

  • Personalised ads and content, ad and content measurement, audience insights, and products development

    Ads and content can be personalised based on a profile. More data can be added to better personalise ads and content. Ad and content performance can be measured. Insights about the audience who saw the ads and content can be derived. Such data can be used to develop or improve user’s experience, systems and software.

By clicking ‘I Agree’ you will allow the use of indicated cookies, device identifiers, web beacons or other similar technologies. Your settings can be changed in the browser on your device.

For certain purposes, legitimate interests may be relied on, rather than consent. You can read more about this in our Privacy and Cookie Policy.